Temperature
19 18 18 18 18 18 18 18 18 18 18 18 18 18 18 18 17 17 17 17 17 16 16 16 16 16 16 16 16 16 16 16 17 17 17 17 17 17 17 17 17 17 17
18 18 18 18 18 18 18 18 18 18 18 18 18 18 18 17 17 17 17 17 16 16 16 16 16 16 16 16 16 16 16 16 16 17 17 17 17 17 17 17 17 16 16
18 18 18 17 18 18 18 18 18 18 18 18 18 17 17 17 17 17 17 17 16 16 16 16 16 16 16 15 15 16 16 16 16 16 17 17 17 17 17 17 16 16 16
18 18 18 18 18 18 18 18 18 17 18 18 18 18 17 17 17 17 17 17 16 16 16 16 16 15 15 15 15 15 16 16 16 16 16 16 17 17 16 16 16 16 16
18 18 18 18 18 18 18 18 17 17 17 18 18 18 18 17 17 17 17 17 16 16 16 16 16 16 15 15 15 15 16 16 16 16 16 16 16 16 16 16 16 16 16
18 18 18 18 18 18 18 17 17 17 17 17 17 17 17 17 17 17 17 17 16 16 16 16 16 16 16 16 15 15 15 16 15 16 16 16 16 16 16 16 16 16 16
18 18 18 18 18 18 18 18 18 17 17 17 17 17 17 17 17 17 17 17 17 17 16 16 16 16 16 16 16 16 16 16 16 16 16 16 16 16 16 16 16 16 16
19 19 18 18 18 18 18 18 18 18 17 18 17 17 17 17 17 17 17 17 17 17 17 16 16 16 16 16 16 16 16 16 16 16 16 16 15 15 16 16 16 16 16
19 19 19 19 18 18 18 18 18 18 18 18 17 17 17 17 17 17 17 17 17 17 17 17 17 17 17 17 16 16 16 16 16 16 16 16 15 15 15 15 15 15 15
19 19 19 19 19 19 19 18 18 18 18 18 18 18 18 18 17 17 17 17 17 17 17 17 17 17 17 17 17 17 17 17 16 16 16 16 16 15 15 15 15 15 15
20 20 20 20 19 19 19 19 19 18 18 18 18 18 18 18 18 17 17 17 17 17 17 17 17 17 17 17 17 17 17 17 16 16 16 16 16 15 15 15 15 15 15
21 21 20 20 20 19 19 19 19 19 19 18 18 18 18 18 18 17 17 17 17 17 17 17 17 17 17 17 17 17 17 17 17 16 16 16 16 16 15 15 15 15 14
21 21 21 20 20 20 19 19 19 19 19 19 18 18 18 18 18 18 17 17 17 17 17 17 17 17 17 17 17 17 17 17 16 16 16 16 16 16 15 15 15 15 15
20 20 20 20 20 20 20 20 20 19 19 19 18 18 18 18 18 18 17 17 17 17 17 17 17 16 16 16 16 16 16 16 16 16 16 16 16 16 15 15 15 15 15
19 19 20 20 20 20 20 20 20 19 19 18 18 18 18 18 18 17 17 17 17 17 17 16 16 16 16 16 16 16 16 15 15 15 15 15 15 15 15 15 15 14 14
18 18 18 19 19 19 19 19 18 18 18 18 18 18 17 17 17 17 17 17 16 16 16 16 16 16 15 15 15 15 15 15 15 15 15 15 14 14 14 14 14 14 13
17 17 17 17 18 18 18 18 17 17 17 17 17 16 16 16 16 16 16 16 16 15 15 15 15 14 14 14 14 14 14 14 14 14 14 14 14 13 13 13 13 13 13
16 16 16 16 16 16 16 16 16 16 16 16 15 15 15 15 15 15 15 15 15 14 14 14 14 14 13 13 13 13 13 13 13 13 12 12 12 12 12 12 12 12 12
15 15 15 15 15 15 15 15 15 15 15 14 14 14 14 14 14 14 14 13 13 13 13 13 13 13 12 12 12 12 12 12 12 12 12 12 11 11 11 11 11 11 12
15 14 14 14 14 14 14 14 14 14 13 13 13 13 13 13 13 13 13 13 12 12 12 12 12 12 12 11 12 12 11 11 11 11 11 10 10 10 10 10 10 10 10
14 14 14 14 13 13 14 13 13 12 12 12 12 12 12 12 12 12 12 12 12 11 11 11 11 11 11 11 11 10 10 10 10 10 9 9 9 9 9 9 9 9 9
13 14 13 13 13 13 13 13 12 11 11 12 12 11 11 11 11 11 11 11 11 11 11 11 10 10 10 10 10 9 9 9 8 8 8 8 8 8 8 8 8 8 7
13 13 13 12 12 12 12 12 11 11 11 11 11 11 11 11 11 11 11 11 11 11 10 10 10 10 9 9 9 8 8 8 8 7 7 7 7 7 7 7 6 6 6
13 13 13 12 12 12 11 11 11 11 11 11 11 11 11 11 11 11 11 10 10 10 10 10 9 9 8 8 8 7 7 7 7 6 6 6 6 6 6 5 5 5 5
13 12 12 12 11 11 11 11 11 11 11 11 10 10 10 10 10 10 10 10 10 9 9 9 8 8 8 7 6 6 6 6 5 5 5 5 5 5 5 5 5 5 5
12 12 12 12 11 11 11 11 11 10 10 10 10 10 10 10 10 9 9 9 9 8 8 8 7 7 6 6 5 5 5 5 4 4 4 4 4 4 4 4 4 4 4
Wind_Speed
7 8 9 10 9 10 11 11 11 10 9 7 7 7 6 5 4 4 7 8 7 7 6 4 4 4 4 3 3 3 4 3 2 3 3 4 2 0 1 2 3 4 6
8 8 10 10 9 10 10 10 11 11 9 7 6 5 6 4 4 3 5 7 7 6 6 5 3 3 4 4 4 3 2 3 2 3 3 3 4 3 1 1 3 3 3
11 11 11 11 11 12 12 12 10 10 9 8 6 6 5 4 3 2 2 4 7 7 7 6 4 3 3 3 3 3 4 3 3 2 4 4 3 2 3 1 1 3 2
10 10 11 11 12 12 11 11 10 9 8 8 8 9 7 5 5 4 4 3 6 6 7 6 6 4 3 3 2 3 3 4 3 2 2 2 4 3 0 3 2 1 2
11 12 12 11 11 11 11 11 10 9 8 8 9 9 6 5 4 4 5 4 3 5 6 6 5 4 3 3 3 4 4 3 3 2 1 3 3 3 3 1 3 3 2
11 11 10 9 9 9 10 10 11 9 8 8 7 8 8 7 6 6 6 4 3 2 4 5 5 5 4 4 4 4 4 3 3 2 2 2 2 1 3 2 1 2 3
11 11 12 11 10 11 11 11 11 10 9 8 7 8 8 9 9 7 7 6 4 4 5 5 4 4 4 4 4 4 3 3 3 3 2 2 2 2 3 3 1 1 3
11 13 13 12 12 12 12 12 12 10 10 9 8 7 7 6 6 7 6 7 6 6 7 6 6 6 6 5 4 3 3 3 3 3 2 2 1 2 3 4 4 1 2
12 12 12 12 13 13 13 14 14 12 11 10 9 7 7 7 7 7 6 6 5 6 7 7 8 6 6 5 5 4 4 3 4 3 3 2 2 1 2 3 4 5 2
11 13 13 13 12 12 12 12 13 12 11 10 10 9 8 8 7 6 6 6 6 6 7 8 8 8 7 6 6 4 4 4 4 4 3 3 2 2 1 2 2 3 5
12 13 12 12 11 11 12 13 13 12 11 11 10 9 8 8 7 7 7 7 6 7 8 9 9 9 8 7 7 6 6 6 6 5 5 6 4 3 3 2 2 3 4
12 12 12 11 10 11 12 13 13 13 12 11 10 9 7 7 7 7 7 6 6 6 8 8 9 9 9 8 9 9 8 7 7 7 7 7 5 6 5 4 4 4 4
10 10 11 11 11 10 11 11 11 12 11 10 9 7 6 6 6 6 5 5 4 5 5 7 8 8 8 8 8 8 8 8 8 7 7 8 7 7 6 6 6 5 5
8 7 7 8 8 9 9 10 9 9 9 8 7 6 5 4 3 2 2 2 3 3 4 5 6 6 6 6 7 7 7 7 8 7 8 8 8 9 8 7 7 6 6
7 7 7 6 6 6 5 6 6 5 7 7 6 5 3 3 3 2 2 2 2 3 3 3 3 4 4 4 4 5 6 6 7 7 8 8 9 10 9 8 7 7 7
10 9 9 9 8 8 8 8 7 7 8 8 6 4 4 3 3 2 2 2 1 0 1 2 3 3 2 3 3 4 4 4 6 7 7 8 8 9 10 11 10 9 9
11 11 11 11 10 10 10 11 10 10 10 9 8 7 6 5 5 5 5 4 3 3 2 2 2 2 1 1 1 2 2 2 3 4 4 5 4 3 4 6 7 8 9
13 12 11 11 10 11 11 11 11 12 12 10 9 8 8 7 6 6 5 4 3 4 3 3 3 3 2 3 2 1 1 1 2 3 3 2 3 5 4 4 5 6 7
12 11 11 11 11 11 11 12 12 11 12 10 9 7 7 7 7 6 5 4 4 4 3 3 4 4 3 4 4 3 2 3 3 4 4 3 3 6 7 5 6 8 8
13 13 12 13 13 10 11 13 12 11 10 8 7 6 7 7 6 5 4 4 4 4 4 5 4 4 4 6 6 6 4 4 3 3 4 5 5 7 7 5 5 9 10
13 12 13 12 10 9 11 13 11 9 7 6 6 6 6 5 5 4 4 4 5 5 5 6 5 5 5 7 9 8 4 3 2 3 3 3 7 9 10 9 7 11 12
13 12 13 11 8 8 11 11 9 6 6 7 6 5 4 4 4 4 3 4 4 5 4 4 4 4 4 5 6 7 6 3 2 2 3 5 11 13 13 10 11 15 13
11 10 12 11 8 8 9 10 6 6 7 7 6 5 5 4 4 3 3 3 3 3 3 3 3 2 3 4 6 7 7 6 3 3 7 10 13 13 10 11 14 12 7
10 9 11 10 8 7 7 7 6 6 7 7 5 5 5 5 5 4 3 3 2 3 3 3 2 2 3 3 4 4 5 6 5 5 8 11 12 10 10 10 9 6 6
8 9 9 9 8 6 6 5 6 6 7 6 6 5 5 5 5 4 3 3 2 3 4 2 2 2 2 3 4 3 4 4 5 5 4 4 5 5 6 6 6 6 6
9 9 8 8 7 6 5 4 5 6 6 5 5 4 4 4 4 4 5 8 7 9 9 8 5 3 3 5 7 8 9 10 9 4 4 5 5 6 7 7 7 7 7
Wind_Direction
168 161 160 163 166 155 153 154 152 148 142 141 142 142 143 147 143 150 147 133 124 112 102 96 81 83 87 83 78 75 60 39 47 67 35 10 10 79 188 175 169 187 200
160 167 165 167 169 167 162 160 159 154 155 153 151 149 145 152 155 153 150 144 135 127 117 113 105 98 91 70 59 68 77 31 46 106 89 38 1 356 356 170 166 173 174
168 170 170 170 172 175 170 169 166 159 158 150 133 123 105 98 106 143 160 161 147 137 129 123 116 109 110 101 82 78 92 67 19 74 133 136 193 299 337 344 159 168 167
169 172 175 175 178 179 173 166 168 163 159 150 148 149 149 160 182 180 178 173 160 152 145 134 123 116 117 114 107 93 96 104 55 13 38 134 152 142 48 334 331 258 188
175 176 177 176 179 178 173 169 168 165 162 157 158 155 155 168 166 162 165 174 175 173 166 152 134 128 130 129 112 102 95 102 107 79 55 57 59 86 132 203 313 332 299
176 175 176 173 176 176 173 171 168 171 171 165 165 166 166 164 159 166 173 184 191 197 188 171 155 150 150 148 142 128 119 113 109 100 97 113 110 117 128 156 244 282 294
176 178 179 179 180 179 178 175 172 175 177 175 177 178 172 166 170 175 181 182 191 205 207 184 173 168 174 170 157 145 143 143 136 139 132 127 144 161 144 134 158 294 305
178 181 183 183 185 185 182 177 177 180 182 183 188 184 175 169 177 183 184 191 200 207 201 190 186 184 182 180 167 166 178 168 165 164 157 157 177 158 158 155 144 89 331
184 182 182 184 188 189 186 182 180 183 186 188 189 191 186 183 188 191 192 197 206 211 202 193 192 192 188 185 179 190 202 194 202 205 197 201 224 193 179 168 156 151 183
183 184 187 189 191 191 187 184 183 186 187 191 194 198 198 199 199 197 205 207 207 206 194 195 194 196 196 192 188 200 210 202 216 214 214 227 236 236 208 177 178 167 169
189 189 190 193 193 190 187 188 189 187 191 195 198 200 201 203 203 205 213 213 211 201 194 194 194 197 201 199 197 210 209 212 226 230 223 233 232 235 239 216 196 189 174
195 192 188 187 187 188 188 191 192 192 195 196 197 201 203 202 207 216 219 213 213 207 198 194 196 204 207 205 204 214 215 214 224 230 230 236 235 234 234 229 230 224 207
193 191 185 187 182 182 186 189 192 195 195 191 192 197 200 200 207 216 220 213 213 214 205 195 202 210 212 211 214 216 218 220 223 223 225 233 229 237 236 232 235 237 235
170 165 168 173 171 174 177 179 187 190 183 174 176 184 194 189 192 199 202 213 209 207 202 200 204 210 213 213 218 218 221 228 232 229 228 228 223 230 232 235 235 234 239
132 136 137 137 139 139 141 139 142 144 152 149 155 169 161 155 152 147 185 203 199 202 200 198 201 209 210 218 220 229 229 231 242 245 242 240 235 233 232 238 234 230 237
111 106 103 100 100 106 109 106 106 105 107 111 113 114 110 108 95 87 80 74 73 142 148 193 190 176 191 181 197 219 241 242 249 253 254 255 252 254 251 250 247 235 236
111 105 99 95 94 92 98 100 98 97 96 96 95 92 89 87 87 88 75 68 64 77 89 99 99 125 138 110 6 286 253 264 271 275 283 287 302 314 302 289 283 270 261
105 100 99 95 89 89 90 92 89 90 90 85 82 82 84 84 77 73 69 64 65 70 69 71 77 75 52 65 61 10 354 350 332 330 337 331 360 11 1 337 320 301 291
103 98 96 96 91 89 91 91 86 87 89 87 84 81 83 83 77 72 65 58 61 54 53 67 74 69 27 39 65 84 69 46 19 12 23 45 53 18 14 358 325 310 300
99 98 94 91 88 87 92 91 88 86 85 87 88 86 86 85 79 70 62 54 61 62 63 60 60 71 59 53 63 75 71 56 33 21 22 32 16 353 352 339 316 303 299
102 99 95 90 88 89 91 90 88 86 89 89 84 79 81 89 86 69 63 71 70 64 63 67 59 63 73 69 70 78 79 74 38 4 344 334 341 336 329 319 290 280 289
104 102 100 94 88 87 90 88 85 87 82 77 71 64 58 64 77 75 65 71 84 80 73 74 63 52 59 68 70 71 64 61 52 334 313 309 318 317 313 307 291 294 299
111 107 106 100 91 87 91 91 87 82 74 65 54 44 41 38 43 64 68 64 71 82 77 77 72 41 30 32 41 40 29 20 9 313 309 311 312 313 309 300 301 306 301
116 112 107 105 100 95 94 98 93 82 73 62 46 38 38 26 26 35 52 64 63 69 70 71 67 33 20 11 5 0 357 353 344 325 314 311 308 305 298 301 304 299 289
113 112 112 112 113 106 97 93 88 79 68 55 43 36 35 33 29 30 42 62 65 111 110 101 97 70 24 335 338 347 336 327 310 314 314 317 317 317 312 307 303 302 305
114 114 115 118 119 112 99 87 85 84 74 49 33 32 31 31 38 42 43 49 67 74 83 89 94 75 41 -0 1 354 343 336 333 341 325 315 312 312 312 312 311 308 306
Height
1500 1501 1503 1506 1508 1511 1516 1520 1524 1528 1532 1536 1539 1541 1544 1546 1547 1548 1549 1549 1549 1549 1550 1551 1551 1552 1553 1554 1555 1556 1557 1558 1560 1561 1563 1564 1565 1566 1566 1567 1568 1569 1569
1499 1501 1503 1506 1507 1509 1515 1519 1524 1527 1531 1535 1538 1540 1543 1545 1547 1548 1549 1549 1549 1549 1550 1550 1551 1552 1552 1553 1554 1555 1557 1558 1559 1560 1561 1563 1566 1565 1566 1566 1567 1568 1568
1498 1500 1502 1504 1508 1510 1514 1518 1523 1527 1531 1534 1537 1540 1542 1544 1546 1547 1548 1549 1549 1549 1550 1550 1550 1551 1552 1552 1553 1555 1556 1557 1558 1559 1561 1562 1563 1564 1565 1565 1566 1567 1567
1497 1499 1501 1503 1507 1510 1514 1518 1522 1526 1530 1533 1535 1537 1540 1542 1544 1546 1547 1548 1549 1549 1550 1550 1550 1551 1551 1552 1553 1554 1556 1557 1557 1558 1559 1561 1561 1562 1564 1565 1565 1566 1566
1496 1498 1500 1503 1506 1510 1514 1517 1522 1525 1529 1532 1535 1537 1540 1542 1544 1546 1547 1548 1548 1549 1550 1550 1550 1550 1551 1552 1553 1554 1555 1556 1557 1558 1559 1559 1560 1561 1562 1563 1564 1565 1565
1496 1498 1501 1503 1506 1510 1513 1517 1520 1524 1527 1531 1534 1537 1539 1541 1543 1545 1546 1547 1548 1549 1549 1550 1550 1550 1551 1551 1552 1553 1554 1556 1557 1557 1558 1559 1559 1560 1561 1561 1562 1563 1563
1495 1497 1500 1502 1505 1508 1512 1515 1519 1522 1526 1529 1532 1535 1538 1540 1541 1543 1545 1546 1547 1548 1549 1550 1550 1551 1551 1551 1552 1553 1554 1555 1556 1556 1557 1558 1558 1559 1560 1560 1561 1561 1561
1494 1496 1499 1501 1504 1507 1510 1514 1517 1521 1524 1527 1531 1533 1536 1539 1540 1542 1544 1545 1546 1548 1548 1549 1550 1550 1551 1551 1551 1552 1553 1553 1554 1555 1556 1557 1557 1558 1558 1559 1559 1559 1560
1491 1494 1497 1500 1503 1505 1508 1512 1515 1519 1522 1525 1529 1532 1534 1537 1539 1540 1542 1544 1545 1547 1548 1548 1549 1549 1550 1550 1551 1551 1552 1552 1553 1553 1554 1555 1555 1556 1556 1557 1557 1558 1557
1490 1492 1495 1498 1501 1504 1507 1510 1514 1517 1520 1523 1527 1529 1532 1534 1537 1539 1540 1542 1544 1545 1546 1546 1547 1548 1549 1549 1550 1550 1551 1551 1551 1552 1552 1553 1553 1554 1554 1554 1555 1555 1555
1488 1490 1493 1496 1499 1502 1505 1508 1512 1515 1518 1521 1524 1527 1530 1532 1535 1537 1538 1540 1541 1542 1543 1544 1545 1546 1547 1548 1548 1549 1549 1549 1550 1550 1550 1551 1551 1552 1552 1552 1552 1552 1552
1486 1488 1491 1494 1497 1500 1502 1505 1509 1513 1516 1519 1522 1525 1528 1530 1532 1534 1536 1537 1539 1540 1541 1542 1543 1544 1545 1545 1546 1546 1547 1547 1547 1548 1548 1548 1549 1549 1549 1549 1549 1549 1549
1484 1487 1489 1492 1495 1498 1500 1504 1507 1511 1514 1518 1520 1523 1526 1528 1529 1531 1533 1535 1536 1537 1538 1539 1540 1541 1542 1542 1542 1543 1543 1544 1544 1545 1545 1545 1545 1545 1545 1545 1545 1545 1545
1482 1484 1487 1490 1493 1496 1499 1501 1505 1509 1512 1516 1518 1521 1523 1525 1526 1529 1530 1531 1532 1533 1534 1535 1536 1536 1537 1538 1538 1539 1539 1539 1540 1541 1541 1541 1541 1541 1541 1541 1540 1540 1540
1481 1484 1486 1489 1492 1495 1498 1501 1503 1507 1510 1513 1515 1518 1520 1522 1523 1525 1526 1526 1528 1529 1530 1530 1531 1531 1532 1532 1533 1533 1534 1534 1535 1535 1535 1535 1535 1535 1536 1535 1535 1535 1534
1482 1484 1486 1488 1491 1494 1497 1500 1502 1504 1507 1509 1512 1516 1518 1519 1520 1521 1522 1523 1523 1524 1524 1525 1525 1525 1526 1526 1527 1528 1529 1529 1529 1529 1529 1529 1529 1529 1529 1528 1528 1528 1527
1482 1484 1487 1489 1490 1493 1496 1499 1501 1504 1506 1509 1511 1513 1515 1516 1517 1518 1518 1519 1519 1519 1519 1520 1520 1520 1521 1522 1523 1523 1523 1523 1523 1522 1522 1522 1522 1522 1521 1521 1521 1520 1520
1484 1486 1489 1491 1493 1495 1497 1500 1502 1504 1506 1508 1510 1512 1514 1515 1516 1516 1516 1517 1517 1517 1517 1517 1517 1517 1517 1518 1518 1519 1518 1518 1518 1517 1516 1515 1514 1514 1514 1513 1512 1512 1511
1486 1489 1492 1494 1496 1498 1500 1502 1504 1506 1508 1510 1512 1513 1514 1515 1515 1515 1515 1515 1515 1515 1515 1515 1515 1515 1515 1515 1514 1514 1514 1514 1513 1513 1512 1510 1509 1508 1507 1506 1503 1502 1502
1489 1492 1495 1498 1500 1502 1504 1504 1506 1508 1510 1512 1513 1514 1515 1515 1515 1515 1514 1514 1514 1514 1514 1514 1514 1513 1512 1512 1511 1511 1510 1510 1509 1508 1507 1505 1503 1502 1500 1498 1495 1493 1491
1493 1496 1498 1501 1504 1506 1507 1507 1509 1510 1512 1513 1514 1515 1515 1515 1515 1515 1514 1514 1514 1513 1513 1513 1512 1512 1511 1510 1509 1508 1507 1506 1504 1503 1502 1500 1497 1496 1494 1491 1489 1486 1483
1496 1499 1501 1504 1507 1509 1510 1510 1511 1513 1514 1515 1515 1516 1516 1515 1515 1515 1514 1514 1514 1513 1512 1511 1511 1510 1509 1508 1506 1505 1504 1502 1500 1498 1496 1494 1492 1489 1487 1485 1482 1479 1476
1500 1502 1504 1506 1509 1512 1512 1512 1514 1515 1515 1516 1516 1516 1516 1516 1515 1515 1514 1513 1513 1512 1511 1510 1509 1508 1507 1506 1504 1502 1500 1498 1496 1494 1491 1489 1486 1483 1480 1478 1475 1472 1469
1503 1505 1507 1508 1511 1513 1514 1515 1516 1517 1516 1516 1516 1516 1516 1516 1515 1514 1513 1512 1511 1510 1509 1508 1507 1506 1504 1503 1501 1498 1496 1493 1491 1488 1486 1483 1480 1477 1474 1472 1469 1466 1463
1505 1507 1509 1511 1513 1515 1516 1517 1518 1518 1517 1517 1517 1516 1515 1515 1514 1513 1512 1511 1510 1508 1507 1506 1504 1503 1500 1498 1496 1494 1490 1488 1485 1482 1479 1477 1474 1471 1468 1465 1462 1459 1456
1507 1509 1511 1513 1515 1517 1518 1518 1518 1518 1518 1517 1516 1516 1515 1514 1513 1512 1511 1509 1508 1507 1505 1503 1502 1499 1498 1495 1492 1490 1487 1484 1480 1477 1474 1471 1468 1465 1462 1459 1455 1453 1450